Regional Weather Roundup
Issued by NWS Little Rock, AR

Home | Current Version | Previous Version | Text Only | Print | Product List | Glossary On
Versions: 1 2 3 4 5 6 7 8 9 10 11 12 13 14 15 16 17 18 19 20 21 22 23 24 25 26 27
000
ASUS44 KLZK 260605
RWRLZK

WEATHER ROUNDUP FOR ARKANSAS
NATIONAL WEATHER SERVICE LITTLE ROCK AR
100 AM CDT SUN OCT 26 2014

NOTE: "FAIR" INDICATES FEW OR NO CLOUDS BELOW 12,000 FEET WITH NO
SIGNIFICANT WEATHER AND/OR OBSTRUCTIONS TO VISIBILITY.

ARZ001-003-010-029-260700-
NORTHWEST ARKANSAS

CITY           SKY/WX    TMP DP  RH WIND       PRES   REMARKS
FAYETTEVILLE   CLEAR     56  56 100 S5        30.03F FOG
6HR MIN TEMP:  54; 6HR MAX TEMP:  68;

FORT SMITH     CLEAR     64  62  93 NE3       30.01F FOG
6HR MIN TEMP:  64; 6HR MAX TEMP:  75;

HARRISON       CLEAR     65  61  87 SW5       30.03F
6HR MIN TEMP:  60; 6HR MAX TEMP:  74;

BENTONVILLE    CLEAR     63  59  88 S3        30.03F
6HR MIN TEMP:  61; 6HR MAX TEMP:  73;

ROGERS         CLEAR     63  59  87 S7        30.03F
6HR MIN TEMP:  62; 6HR MAX TEMP:  72;

SILOAM SPGS    CLEAR     63  55  77 S5        30.03F
6HR MIN TEMP:  63; 6HR MAX TEMP:  73;

HIGHFILL       CLEAR     63  61  93 SW6       30.02F
6HR MIN TEMP:  61; 6HR MAX TEMP:  71;

$$

ARZ004-005-016-260700-
NORTH CENTRAL ARKANSAS

CITY           SKY/WX    TMP DP  RH WIND       PRES   REMARKS
BATESVILLE     CLEAR     63  61  94 CALM      30.00S
6HR MIN TEMP:  63; 6HR MAX TEMP:  75;

FLIPPIN        MOCLDY    57  54  88 CALM      30.01S
6HR MIN TEMP:  57; 6HR MAX TEMP:  73;

MTN HOME       CLEAR     62  61  96 CALM      30.00F
6HR MIN TEMP:  62; 6HR MAX TEMP:  72;

$$

ARZ040-041-260700-
WEST CENTRAL ARKANSAS

CITY           SKY/WX    TMP DP  RH WIND       PRES   REMARKS
MENA           CLEAR     61  59  94 CALM      30.05F
MOUNT IDA      FOG       62  60  93 CALM      30.02F VSB 1/2
6HR MIN TEMP:  62; 6HR MAX TEMP:  73;

$$

ARZ009-017-025-026-028-260700-
NORTHEAST ARKANSAS

CITY           SKY/WX    TMP DP  RH WIND       PRES   REMARKS
CORNING        FAIR      61  61 100 CALM      29.99S FOG
JONESBORO      CLEAR     65  63  93 W3        29.99F
6HR MIN TEMP:  61; 6HR MAX TEMP:  71;

NEWPORT        CLEAR     63  61  93 S6        30.00F
6HR MIN TEMP:  62; 6HR MAX TEMP:  74;

WALNUT RIDGE     N/A     59  55  88 CALM      29.98S VSB 1/4
6HR MIN TEMP:  59; 6HR MAX TEMP:  73;

BLYTHEVILLE    CLEAR     64  62  93 S5        30.00S
6HR MIN TEMP:  64; 6HR MAX TEMP:  74;

$$

ARZ022-023-033-042-044-260700-
CENTRAL ARKANSAS

CITY           SKY/WX    TMP DP  RH WIND       PRES   REMARKS
LITTLE ROCK    CLEAR     65  62  90 CALM      30.02F
6HR MIN TEMP:  64; 6HR MAX TEMP:  76; 6HR PCP: TRACE;

N LITTLE ROCK    N/A     66  65  95 SW3       30.02F
6HR MIN TEMP:  66; 6HR MAX TEMP:  75;

JACKSONVILLE   CLEAR     60  59  97 CALM      30.01F
6HR MIN TEMP:  59; 6HR MAX TEMP:  71;

SEARCY         CLEAR     59  58  96 CALM      30.02S FOG
6HR MIN TEMP:  59; 6HR MAX TEMP:  70;

HOT SPRINGS    CLEAR     64  62  93 NW3       30.04F FOG
6HR MIN TEMP:  63; 6HR MAX TEMP:  74;

RUSSELLVILLE   CLEAR     60  58  92 CALM      30.01F FOG
6HR MIN TEMP:  60; 6HR MAX TEMP:  70;

$$

ARZ036-260700-
EAST ARKANSAS

CITY           SKY/WX    TMP DP  RH WIND       PRES   REMARKS
WEST MEMPHIS   CLEAR     63  62  97 SW5       30.00F
6HR MIN TEMP:  63; 6HR MAX TEMP:  75;

$$

ARZ050-053-066-070-073-260700-
SOUTHWEST ARKANSAS

CITY           SKY/WX    TMP DP  RH WIND       PRES   REMARKS
ARKADELPHIA    FOG       60  60 100 CALM      30.04F VSB 1/4
6HR MIN TEMP:  60; 6HR MAX TEMP:  70;

CAMDEN         CLEAR     59  57  94 CALM      30.04F FOG
TEXARKANA      CLEAR     66  63  90 SW6       30.04F
6HR MIN TEMP:  66; 6HR MAX TEMP:  75;

EL DORADO      CLEAR     60  59  96 CALM      30.05F FOG
6HR MIN TEMP:  60; 6HR MAX TEMP:  69;

DE QUEEN       FOG       59  59 100 CALM      30.02F VSB 1/4
6HR MIN TEMP:  58; 6HR MAX TEMP:  71;

$$

ARZ056-057-069-260700-
SOUTHEAST ARKANSAS

CITY           SKY/WX    TMP DP  RH WIND       PRES   REMARKS
PINE BLUFF     MOCLDY    62  61  96 CALM      30.03F FOG
6HR MIN TEMP:  60; 6HR MAX TEMP:  74;

STUTTGART      CLEAR     64  61  88 S8        30.03S
6HR MIN TEMP:  64; 6HR MAX TEMP:  72;

MONTICELLO     CLEAR     69  63  81 W6        30.04S
6HR MIN TEMP:  69; 6HR MAX TEMP:  73; 6HR PCP: TRACE;


$$





USA.gov is the U.S. government's official web portal to all federal, state and local government web resources and services.